Starlink 6327

operational
NORAD ID: 56522 Int'l Des: 2023-065 Owner: SPXS Country: US Constellation: starlink
LEOCIRCULAR

About Starlink 6327

Description loading...

Live Position

Loading 3D Globe...

Upcoming Passes

Altitude History

Altitude vs Time

uPlot chart will show altitude changes over time

Two-Line Element Set

1 56522U 23065V 25353.83361235 .00001840 00000-0 15128-3 0 9998
2 56522 43.0042 284.1376 0001399 263.9269 96.1414 15.02526637144613
Epoch: Dec 19, 2025 • Age: 6 hours

Current Status

Altitude 558.3 km
Velocity 7.58 km/s
Sub-Earth Point 10.27°N, 20°W
Launch Date May 14, 2023
Age 2.6 years
Type internet

Technical Details

Classification Payload
Mass 305.00 kg
Dry Mass 290.00 kg
Total Mass 305.00 kg
Length 0.20 m
Diameter 2.80 m
Span 9.00 m
Shape Box + pan
Manufacturer SPXS
Bus Type Starlink
Phase Status In Orbit
Owner/State SPXS/US

Large Constellations

Loading constellations...